Location: *
(48.8780°N, 19.2358°E)
Time: 19:32:07
(UTC+00:00)

Okean 3 Rocket - Pass Details

Date: 18 October 2019
Orbit: 615 x 645 km, 82.5° (Epoch: 10 November)

Event Time Altitude Azimuth Distance (km) Brightness Sun altitude
Rises 17:50:55 0° 354° (N) 2,968 7.2 -20.8°
Reaches altitude 10° 17:53:16 10° 1° (N) 2,051 6.3 -21.2°
Enters shadow 17:56:45 41° 40° (NE) 938 4.2 -21.8°
